Regional Weather Roundup
Issued by NWS

Home | Current Version | Previous Version | Graphics & Text | Print | Product List | Glossary On
Versions: 1 2 3 4 5 6 7 8 9 10 11 12 13 14 15 16 17 18 19 20 21 22 23 24 25 26 27 28 29 30 31 32 33 34 35 36 37 38 39 40 41 42 43 44 45 46 47 48 49 50
000
ASUS43 KFSD 231502
RWRSD

WEATHER ROUNDUP FOR SOUTH DAKOTA
NATIONAL WEATHER SERVICE SIOUX FALLS SD
900 AM CST TUE JAN 23 2018

NOTE: "FAIR" INDICATES FEW OR NO CLOUDS BELOW 12,000 FEET WITH NO
SIGNIFICANT WEATHER AND/OR OBSTRUCTIONS TO VISIBILITY.


SDZ001>005-009-010-012>017-231600-
NORTHWEST AND NORTH CENTRAL SOUTH DAKOTA

CITY           SKY/WX    TMP DP  RH WIND       PRES   REMARKS
BUFFALO          N/A     25  19  78 W14       30.01R WCI  13
FAITH            N/A     30  23  75 W14       30.06R WCI  19
MOBRIDGE       MOCLDY    17  13  84 CALM      30.03R
$$

SDZ012>016-024>037-041>051-057-063-072>074-231600-
SOUTHWEST AND SOUTH CENTRAL SOUTH DAKOTA

CITY           SKY/WX    TMP DP  RH WIND       PRES   REMARKS
RAPID CTY ARPT PTCLDY    24  18  77 NW8       30.10R WCI  15
PIERRE         PTCLDY    21  20  96 VRB3      30.07R
CUSTER         CLEAR     24  12  60 NW14G24   30.05R WCI  12
ELLSWORTH AFB  PTCLDY    31  21  66 NW10      30.09R WCI  22
PHILIP         MOCLDY    28  26  92 W8        30.11R WCI  20
PINE RIDGE     MOCLDY    19  16  88 SW3       30.14R
SPEARFISH        N/A     30  19  64 W10G16    30.12R WCI  21
WINNER         CLOUDY    29  25  85 W8        30.09R WCI  21
$$

SDZ004>011-016>023-039-040-231600-
NORTHEAST SOUTH DAKOTA

CITY           SKY/WX    TMP DP  RH WIND       PRES   REMARKS
ABERDEEN       LGT SNOW  20  19  96 SW6       30.08S FOG     WCI  12
WATERTOWN      FOG       17  16  95 W5        30.04R VSB 1/2 WCI  10
BROOKINGS      CLOUDY    19  17  92 N7        30.07R WCI  10
SISSETON         N/A     20  18  92 N5        30.07R WCI  13
$$

SDZ017-020-022-023-036>040-048>070-231600-
SOUTHEAST SOUTH DAKOTA

CITY           SKY/WX    TMP DP  RH WIND       PRES   REMARKS
SIOUX FALLS    CLOUDY    21  20  96 NW6       30.09R WCI  13
HURON          CLOUDY    20  19  96 NW7       30.10R FOG     WCI  11
CHAMBERLAIN    PTCLDY    17  16  96 CALM      30.09S
MITCHELL       CLOUDY    20  19  96 W9        30.12R FOG     WCI   9
YANKTON        CLOUDY    20  18  92 NW10      30.13R WCI   9
$$

ABBREVIATIONS USED IN REMARKS
   TC - TEMPERATURE IN CELSIUS
  WCI - WIND CHILL INDEX
   HX - HEAT INDEX
  VSB - VISIBILITY




USA.gov is the U.S. government's official web portal to all federal, state and local government web resources and services.